Погода в Чесме

Россия / Челябинская область     53°48′32″N   60°39′11″E
темп.,
°C
ветер,
м/с
пор.,
м/с
влажн.,
%
обл.,
%
осадки,
мм/ч
давл.,
гПа
погр.,
м
8 марта, пн
пн823:00−16сз598343 0.1 1011138
02:00−18зсз46840 0.0 101281
05:00−19з46880 0.0 101477
08:00−18юз479066 0.0 1014130
11:00−12ююз7119383 0.1 1012381
14:00−9юз101684100 0.2 1010869
17:00−6юз101782100 0.2 10091048
20:00−7юз8188291 0.0 1009691
9 марта, вт
вт923:00−7юз7168493 0.0 1010553
02:00−6юз81686100 0.0 1009612
05:00−7юз91786100 0.0 1008647
08:00−6юз91785100 0.0 1007589
11:00−5юз9168499 0.0 1008712
14:00−3з5107492 0.1 10111150
17:00−5зюз238196 0.1 101243
20:00−8ююз2389100 0.0 101221
10 марта, ср
ср1023:00−8ююз2393100 0.0 101222
02:00−9ю2396100 0.0 100934
05:00−8юв3696100 0.3 1007174
08:00−7ююв4796100 0.6 1003237
11:00−5ююв5996100 1.1 1000467
14:00−3ююз6993100 0.8 998717
17:00−6зюз6128799 1.0 998561
20:00−12з11187631 0.0 999538
11 марта, чт
чт1123:00−15з10178562 0.1 1001498
02:00−15з9158998 0.1 1003591
05:00−16зсз7139199 0.2 1005603
08:00−17сз61291100 0.2 1008638
11:00−16сз6992100 0.4 1010847
14:00−14сз6891100 0.5 1013873
17:00−14ссз5889100 0.7 1015766
20:00−19сз348681 0.0 101921
12 марта, пт
пт1223:00−21зсз348241 0.0 102234
02:00−23з45840 0.0 102464
05:00−23з47840 0.0 102596
08:00−22з46850 0.0 102786
11:00−15з478448 0.0 1027216
14:00−12з358532 0.0 1027234
17:00−12з238916 0.0 102741
20:00−14зсз34860 0.0 102823